Location: Budapest
(47.4979°N, 19.0402°E)
Time: 19:48:32
(UTC+02:00)

Vanguard 1 Rocket - Visible Passes

Search period start: 21 October 2017 00:00
Search period end: 30 October 2017 23:00
Orbit: 655 x 4222 km, 34.3° (Epoch: 20 October)

Date Brightness Start Highest point End Pass type
(mag) Time Alt. Az. Time Alt. Az. Time Alt. Az.
22 Oct 10.3 06:07:57 10° SSW 06:12:34 15° SSE 06:16:09 10° SE visible
23 Oct 10.6 04:57:55 10° S 05:01:22 12° SSE 05:04:16 10° SE visible
24 Oct 10.0 06:08:58 10° SSW 06:15:43 20° SSE 06:20:25 10° ESE visible
25 Oct 10.4 04:57:26 10° SSW 05:04:29 17° SSE 05:09:35 10° SE visible
26 Oct 10.8 03:46:57 10° S 03:52:57 14° SSE 03:57:38 10° SE visible
26 Oct 9.8 06:10:32 10° SW 06:18:51 25° S 06:24:13 10° ESE visible
27 Oct 10.2 04:58:11 10° SSW 05:07:36 23° SSE 05:13:46 10° ESE visible
28 Oct 10.5 03:49:20 14° S 03:56:00 19° SSE 04:02:40 10° ESE visible
28 Oct 9.6 06:12:25 10° SW 06:21:57 29° S 06:27:46 10° ESE visible
29 Oct 10.9 02:42:43 15° SSE 02:44:03 15° SSE 02:50:20 10° ESE visible
29 Oct 10.0 04:00:04 11° SW 04:10:41 28° SSE 04:17:32 10° ESE visible
30 Oct 10.3 02:53:20 20° S 02:59:01 25° SSE 03:06:49 10° ESE visible
30 Oct 9.5 05:14:31 10° WSW 05:25:02 33° S 05:31:12 10° ESE visible
